Printer-friendly version

IAU Minor Planet Center

Minor Planet Center

MPEC 2000-L11: 2000 KN44

The following Minor Planet Electronic Circular may be linked-to from your own Web pages, but must not otherwise be redistributed electronically.


Read MPEC 2000-L10 Read MPEC 2000-L12


M.P.E.C. 2000-L11                                Issued 2000 June 3, 18:09 UT

     The Minor Planet Electronic Circulars contain information on unusual
         minor planets and routine data on comets.  They are published
   on behalf of Commission 20 of the International Astronomical Union by the
          Minor Planet Center, Smithsonian Astrophysical Observatory,
                          Cambridge, MA 02138, U.S.A.

             Prepared using the Tamkin Foundation Computer Network

             BMARSDEN@CFA.HARVARD.EDU or GWILLIAMS@CFA.HARVARD.EDU
          URL http://cfa-www.harvard.edu/iau/mpc.html  ISSN 1523-6714

                                   2000 KN44

Observations:
     K00K44N* C2000 05 30.21065 14 03 52.08 +16 07 39.1          19.1 R      699
     K00K44N  C2000 05 30.22646 14 03 52.27 +16 06 37.7                      699
     K00K44N  C2000 05 30.26447 14 03 52.72 +16 04 08.5                      699
     K00K44N  C2000 05 30.28069 14 03 52.94 +16 03 04.2                      699
     K00K44N  C2000 05 31.87749 14 04 19.59 +14 20 03.0                      557
     K00K44N  C2000 05 31.87896 14 04 19.65 +14 19 56.0                      557
     K00K44N  C2000 05 31.88042 14 04 19.62 +14 19 50.5          19.7 V      557
     K00K44N  C2000 06 01.90836 14 04 39.35 +13 14 55.5          18.6 R      046
     K00K44N  C2000 06 01.90933 14 04 39.39 +13 14 51.7                      046
     K00K44N  C2000 06 01.91035 14 04 39.36 +13 14 48.0                      046
     K00K44N  C2000 06 01.91153 14 04 39.43 +13 14 43.5                      046
     K00K44N  C2000 06 01.91272 14 04 39.40 +13 14 39.1                      046
     K00K44N  C2000 06 02.15193 14 04 44.34 +12 59 46.3                      837
     K00K44N  C2000 06 02.15618 14 04 44.45 +12 59 31.3                      837
     K00K44N  C2000 06 02.16036 14 04 44.49 +12 59 15.2          19.0        837
     K00K44N  C2000 06 02.16453 14 04 44.51 +12 59 00.1                      837
     K00K44N  C2000 06 02.16868 14 04 44.52 +12 58 43.1                      837
     K00K44N  C2000 06 02.18812 14 04 44.90 +12 57 31.8                      837
     K00K44N  C2000 06 02.19242 14 04 45.01 +12 57 14.9                      837
     K00K44N  C2000 06 02.19653 14 04 44.96 +12 56 59.9                      837

Observer details:
046 Klet.  Observers M. Tichy, Z. Moravec.  0.57-m f/5.2 reflector + CCD.
557 Ondrejov.  Observers P. Pravec, P. Kusnirak.  0.65-m f/3.6 reflector + CCD.
699 Lowell Observatory-LONEOS.  Observer W. D. Ferris.  Measurer B. W. Koehn.
    0.59-m LONEOS Schmidt + CCD.
837 Jupiter.  Observer L. Sikes.  Measurer B. Segal.  0.36-m f/11
    Schmidt-Cassegrain + CCD.

Orbital elements:
2000 KN44
Epoch 2000 May 16.0 TT = JDT 2451680.5                  Williams
M  11.78461              (2000.0)            P               Q
n   0.21146636     Peri.   97.77724     -0.89197875     -0.13293869
a   2.7902419      Node    75.37922     -0.09081638     -0.88361017
e   0.5748044      Incl.   26.52253     +0.44286148     -0.44895476
P   4.66           H   18.4           G   0.15
From 20 observations 2000 May 30-June 2.

Ephemeris:
2000 KN44                a,e,i = 2.79, 0.57, 27                  q = 1.1864
Date    TT    R. A. (2000) Decl.     Delta      r     Elong.  Phase     V
2000 05 26    14 03.14   +20 51.0    0.544    1.412   127.5    34.7    19.3
2000 05 31    14 04.08   +15 16.5    0.577    1.442   127.9    33.7    19.4
2000 06 05    14 05.86   +10 06.5    0.616    1.474   127.6    33.1    19.6
2000 06 10    14 08.41   +05 23.7    0.662    1.506   126.5    32.8    19.8
2000 06 15    14 11.66   +01 08.5    0.713    1.539   124.9    32.7    20.0
2000 06 20    14 15.52   -02 40.3    0.769    1.573   123.0    32.8    20.2
2000 06 25    14 19.94   -06 04.8    0.830    1.608   120.7    32.9    20.4
2000 06 30    14 24.87   -09 07.3    0.895    1.642   118.3    33.0    20.6
2000 07 05    14 30.27   -11 50.4    0.964    1.678   115.7    33.1    20.8
2000 07 10    14 36.10   -14 16.5    1.037    1.713   113.1    33.1    21.0
2000 07 15    14 42.33   -16 27.8    1.112    1.749   110.4    33.0    21.2
2000 07 20    14 48.91   -18 26.0    1.190    1.785   107.7    32.8    21.4
2000 07 25    14 55.81   -20 12.8    1.271    1.821   105.0    32.6    21.6
2000 07 30    15 03.01   -21 49.7    1.354    1.857   102.3    32.3    21.8
2000 08 04    15 10.50   -23 17.9    1.439    1.894    99.6    31.9    21.9

Gareth V. Williams           (C) Copyright 2000 MPC           M.P.E.C. 2000-L11

Read MPEC 2000-L10 Read MPEC 2000-L12


Our Web policy. Index to the CBAT/MPC/ICQ pages.


Valid HTML 4.01!